Newport, AR

8:42 PM CDT on March 25, 2017 (GMT -0500)
Newport

Weather History for KM19 - December, 2012

Change the Weather History Date:

Monday, December 24, 2012

  Actual Average (KBVX) Record (KBVX)
Temperature  
Mean Temperature 44 °F -  
Max Temperature 52 °F 47 °F 76 °F (1955)
Min Temperature 36 °F 27 °F -1 °F (1966)
Degree Days  
Heating Degree Days 20    
Moisture  
Dew Point 43 °F    
Average Humidity 85    
Maximum Humidity 100    
Minimum Humidity 43    
Precipitation  
Precipitation 0.00 in - - ()
Sea Level Pressure  
Sea Level Pressure 29.90 in    
Wind  
Wind Speed 6 mph (NNW)    
Max Wind Speed 18 mph    
Max Gust Speed 54 mph    
Visibility 6 miles    
Events Fog , Rain    
Averages and records for this station are not official NWS values.
T = Trace of Precipitation, MM = Missing Value Source: NWS Daily Summary

Daily Weather History Graph

Daily Weather History Graph

Search for Another Location

Airport or City:

Trip Planner

Search our weather history database for the weather conditions in past years. The results will help you decide how hot, cold, wet, or windy it might be!

Date:

Astronomy

Dec. 24, 2012 Rise Set
Actual Time 7:12 AM CST 4:57 PM CST
Civil Twilight 6:43 AM CST 5:25 PM CST
Nautical Twilight 6:11 AM CST 5:57 PM CST
Astronomical Twilight 5:40 AM CST 6:28 PM CST
Moon 2:22 PM CST (12/24) 3:53 AM CST (12/24)
Length of Visible Light 10h 41m
Length of Day
9h 45m
Waxing Gibbous, 88% of the Moon is Illuminated
Dec 24
Waxing Gibbous
Dec 28
Full
Jan 4
Last Quarter
Jan 11
New
Jan 18
First Quarter

Hourly Weather History & Observations

Time (CST) Temp. Windchill Dew Point Humidity Pressure Visibility Wind Dir Wind Speed Gust Speed Precip Events Conditions
12:56 AM 50.9 °F - 50.9 °F 100% 29.80 in 6.0 mi Calm Calm - 0.00 in   Overcast
1:20 AM 51.8 °F - 51.8 °F 100% 29.80 in 6.0 mi South 5.8 mph - 0.00 in   Overcast
1:56 AM 50.9 °F - 50.9 °F 100% 29.79 in 5.0 mi Variable 3.5 mph - 0.00 in   Overcast
2:45 AM 51.8 °F - 51.8 °F 100% 29.80 in 4.0 mi Variable 3.5 mph - N/A   Overcast
2:56 AM 52.0 °F - 52.0 °F 100% 29.79 in 5.0 mi Calm Calm - N/A   Overcast
3:24 AM 51.8 °F - 51.8 °F 100% 29.79 in 1.8 mi Calm Calm - N/A   Overcast
3:26 AM 51.8 °F - 51.8 °F 100% 29.79 in 1.0 mi Calm Calm - N/A   Overcast
3:29 AM 51.8 °F - 51.8 °F 100% 29.79 in 0.5 mi Calm Calm - N/A Fog Fog
3:56 AM 50.9 °F - 50.9 °F 100% 29.80 in 0.8 mi NNW 6.9 mph - N/A   Overcast
4:05 AM 51.8 °F - 51.8 °F 100% 29.81 in 0.5 mi NNW 8.1 mph - N/A Fog Fog
4:17 AM 51.8 °F - 51.8 °F 100% 29.81 in 0.2 mi NW 8.1 mph - 0.00 in Fog , Rain Light Rain
4:28 AM 51.8 °F - 51.8 °F 100% 29.81 in 0.5 mi NW 6.9 mph - 0.00 in Fog , Rain Light Rain
4:49 AM 51.8 °F - 51.8 °F 100% 29.80 in 0.2 mi NNW 5.8 mph - 0.00 in Fog , Rain Light Rain
4:56 AM 50.0 °F - 50.0 °F 100% 29.81 in 0.2 mi WNW 6.9 mph - 0.00 in Fog , Rain Light Rain
5:19 AM 51.8 °F - 51.8 °F 100% 29.81 in 0.5 mi NW 6.9 mph - 0.00 in Fog Fog
5:56 AM 50.9 °F - 50.9 °F 100% 29.83 in 1.5 mi WNW 9.2 mph - 0.00 in Rain Light Rain
6:00 AM 51.8 °F - 51.8 °F 100% 29.83 in 3.0 mi NW 10.4 mph - 0.00 in Rain Light Rain
6:21 AM 51.8 °F - 51.8 °F 100% 29.85 in 6.0 mi NW 12.7 mph - 0.00 in   Overcast
6:38 AM 50.0 °F - 50.0 °F 100% 29.86 in 8.0 mi NW 10.4 mph - 0.00 in   Overcast
6:56 AM 48.9 °F - 48.9 °F 100% 29.87 in 7.0 mi NNW 10.4 mph - 0.00 in   Overcast
7:33 AM 46.4 °F 41.5 °F 46.4 °F 100% 29.89 in 10.0 mi North 10.4 mph 23.0 mph N/A   Scattered Clouds
7:49 AM 44.6 °F 36.9 °F 44.6 °F 100% 29.92 in 10.0 mi NNW 18.4 mph 54.1 mph N/A   Squalls
7:56 AM 45.0 °F 37.6 °F 43.9 °F 96% 29.92 in 10.0 mi NNW 17.3 mph 40.3 mph N/A   Partly Cloudy
8:56 AM 45.9 °F 39.1 °F 37.9 °F 74% 29.95 in 10.0 mi NNW 16.1 mph 24.2 mph N/A   Clear
9:56 AM 46.9 °F - 36.0 °F 66% 29.97 in 10.0 mi NNW 18.4 mph - N/A   Clear
10:56 AM 47.8 °F - 34.9 °F 61% 29.98 in 10.0 mi North 11.5 mph 31.1 mph N/A   Clear
11:56 AM 48.9 °F - 32.9 °F 54% 29.95 in 10.0 mi NNW 11.5 mph - N/A   Clear
12:56 PM 52.0 °F - 31.1 °F 45% 29.93 in 10.0 mi NNW 6.9 mph - N/A   Clear
1:56 PM 52.9 °F - 31.1 °F 43% 29.93 in 10.0 mi NNW 6.9 mph - N/A   Clear
2:56 PM 52.9 °F - 31.1 °F 43% 29.91 in 10.0 mi Variable 6.9 mph - N/A   Clear
3:56 PM 50.9 °F - 32.0 °F 48% 29.93 in 10.0 mi NW 11.5 mph - N/A   Clear
4:56 PM 46.9 °F - 32.9 °F 58% 29.95 in 10.0 mi NW 6.9 mph - N/A   Clear
5:56 PM 43.9 °F 39.9 °F 32.9 °F 65% 29.97 in 10.0 mi NW 6.9 mph - N/A   Clear
6:56 PM 39.9 °F 35.8 °F 34.0 °F 79% 30.00 in 10.0 mi NNW 5.8 mph - N/A   Clear
7:56 PM 38.8 °F 32.6 °F 32.9 °F 79% 30.01 in 10.0 mi North 9.2 mph - N/A   Clear
8:56 PM 39.9 °F 35.1 °F 32.0 °F 73% 30.02 in 10.0 mi North 6.9 mph - N/A   Clear
9:56 PM 38.8 °F 31.6 °F 32.0 °F 76% 30.01 in 10.0 mi NNE 11.5 mph - N/A   Clear
10:56 PM 37.9 °F 30.0 °F 32.0 °F 79% 30.03 in 10.0 mi NNE 12.7 mph - N/A   Clear
11:34 PM 37.4 °F 30.3 °F 33.8 °F 87% 30.02 in 2.0 mi NE 10.4 mph - 0.00 in Rain Light Rain
11:41 PM 37.4 °F 30.3 °F 33.8 °F 87% 30.02 in 1.2 mi NE 10.4 mph - 0.00 in Rain Light Rain
11:48 PM 37.4 °F 29.3 °F 32.0 °F 81% 30.03 in 1.0 mi NE 12.7 mph - 0.00 in Rain Light Rain
11:56 PM 36.9 °F 28.2 °F 32.0 °F 83% 30.04 in 0.8 mi NE 13.8 mph - 0.00 in Rain Light Rain